{"data":{"norad_id":49021,"epoch":"2026-05-24T23:12:42.564384Z","epoch_age_seconds":73654,"freshness":"FRESH","line1":"1 49021U 21064D   26144.96715931 -.00000252  00000+0 -69303-4 0  9992","line2":"2 49021  45.0040 331.8920 0008349 145.3770 214.7611 14.08555909250957","mean_motion":14.08555909,"eccentricity":0.0008349,"inclination_deg":45.004,"raan_deg":331.892,"arg_perigee_deg":145.377,"mean_anomaly_deg":214.7611,"bstar":-6.9303e-5,"rev_number":25095,"period_min":102.23236371372,"perigee_km":858.27087371875,"apogee_km":870.36432440826,"semimajor_km":7242.4545990635,"source":"CELESTRAK","updated_at":"2026-05-25T13:37:57.013885Z"}}